Time,TemperatureF,DewpointF,PressureIn,WindDirection,WindDirectionDegrees,WindSpeedMPH,WindSpeedGustMPH,Humidity,HourlyPrecipIn,Conditions,Clouds,dailyrainin,SoftwareType,DateUTC
2015-01-27 00:00:00,58.6,42.0,29.98,ENE,57,1.0,3.0,54,0.00,,,0.00,vanprod-2.5,2015-01-27 08:00:00,
2015-01-27 00:05:00,58.2,42.1,29.99,ENE,57,1.0,3.0,55,0.00,,,0.00,vanprod-2.5,2015-01-27 08:05:00,
2015-01-27 00:10:00,57.9,42.8,30.00,ENE,57,0.0,1.0,57,0.00,,,0.00,vanprod-2.5,2015-01-27 08:10:00,
2015-01-27 00:15:00,57.7,42.6,30.00,ENE,57,0.0,1.0,57,0.00,,,0.00,vanprod-2.5,2015-01-27 08:15:00,
2015-01-27 00:25:00,57.4,42.8,30.00,ENE,57,0.0,2.0,58,0.00,,,0.00,vanprod-2.5,2015-01-27 08:25:00,
2015-01-27 00:30:00,57.4,42.8,30.00,ENE,57,0.0,1.0,58,0.00,,,0.00,vanprod-2.5,2015-01-27 08:30:00,
2015-01-27 00:35:00,57.3,42.7,30.00,ENE,57,1.0,3.0,58,0.00,,,0.00,vanprod-2.5,2015-01-27 08:35:00,
2015-01-27 00:45:00,57.2,43.0,30.01,ENE,57,0.0,1.0,59,0.00,,,0.00,vanprod-2.5,2015-01-27 08:45:00,
2015-01-27 00:50:00,57.1,42.9,30.01,ENE,57,0.0,0.0,59,0.00,,,0.00,vanprod-2.5,2015-01-27 08:50:00,
2015-01-27 00:55:00,56.9,42.7,30.01,ENE,57,0.0,0.0,59,0.00,,,0.00,vanprod-2.5,2015-01-27 08:55:00,
2015-01-27 01:00:00,56.7,43.0,30.01,ENE,57,0.0,0.0,60,0.00,,,0.00,vanprod-2.5,2015-01-27 09:00:00,
2015-01-27 01:10:00,56.3,43.5,30.02,ENE,57,0.0,1.0,62,0.00,,,0.00,vanprod-2.5,2015-01-27 09:10:00,
2015-01-27 01:15:00,56.2,43.4,30.02,ENE,57,0.0,2.0,62,0.00,,,0.00,vanprod-2.5,2015-01-27 09:15:00,
2015-01-27 01:20:00,56.2,43.4,30.02,ENE,57,0.0,1.0,62,0.00,,,0.00,vanprod-2.5,2015-01-27 09:20:00,
2015-01-27 01:25:00,56.3,43.5,30.02,ENE,57,1.0,2.0,62,0.00,,,0.00,vanprod-2.5,2015-01-27 09:25:00,
2015-01-27 01:35:00,57.0,43.3,30.02,North,9,0.0,2.0,60,0.00,,,0.00,vanprod-2.5,2015-01-27 09:35:00,
2015-01-27 01:40:00,57.1,42.5,30.03,NNW,347,1.0,5.0,58,0.00,,,0.00,vanprod-2.5,2015-01-27 09:40:00,
2015-01-27 01:45:00,57.3,41.3,30.03,SSW,205,0.0,7.0,55,0.00,,,0.00,vanprod-2.5,2015-01-27 09:45:00,
2015-01-27 01:55:00,57.5,41.5,30.03,SE,126,3.0,5.0,55,0.00,,,0.00,vanprod-2.5,2015-01-27 09:55:00,
2015-01-27 02:00:00,57.5,40.5,30.03,SW,236,0.0,6.0,53,0.00,,,0.00,vanprod-2.5,2015-01-27 10:00:00,
2015-01-27 02:05:00,57.7,40.7,30.03,WSW,239,3.0,6.0,53,0.00,,,0.00,vanprod-2.5,2015-01-27 10:05:00,
2015-01-27 02:10:00,57.8,40.3,30.03,South,181,6.0,11.0,52,0.00,,,0.00,vanprod-2.5,2015-01-27 10:10:00,
2015-01-27 02:15:00,57.8,39.8,30.03,SSW,211,1.0,7.0,51,0.00,,,0.00,vanprod-2.5,2015-01-27 10:15:00,
2015-01-27 02:20:00,57.9,39.9,30.03,South,178,5.0,10.0,51,0.00,,,0.00,vanprod-2.5,2015-01-27 10:20:00,
2015-01-27 02:30:00,57.9,39.9,30.04,South,172,3.0,12.0,51,0.00,,,0.00,vanprod-2.5,2015-01-27 10:30:00,
2015-01-27 02:35:00,58.0,40.0,30.04,South,184,1.0,6.0,51,0.00,,,0.00,vanprod-2.5,2015-01-27 10:35:00,
2015-01-27 02:40:00,57.9,39.9,30.04,SE,140,1.0,7.0,51,0.00,,,0.00,vanprod-2.5,2015-01-27 10:40:00,
2015-01-27 02:50:00,57.8,40.3,30.04,South,180,6.0,10.0,52,0.00,,,0.00,vanprod-2.5,2015-01-27 10:50:00,
2015-01-27 02:55:00,58.0,40.5,30.04,SSW,200,4.0,7.0,52,0.00,,,0.00,vanprod-2.5,2015-01-27 10:55:00,
2015-01-27 03:00:00,58.0,40.5,30.04,South,180,2.0,8.0,52,0.00,,,0.00,vanprod-2.5,2015-01-27 11:00:00,
2015-01-27 03:10:00,58.2,40.7,30.04,SSW,210,2.0,6.0,52,0.00,,,0.00,vanprod-2.5,2015-01-27 11:10:00,
2015-01-27 03:15:00,58.4,40.9,30.04,West,273,6.0,11.0,52,0.00,,,0.00,vanprod-2.5,2015-01-27 11:15:00,
2015-01-27 03:20:00,58.4,41.4,30.04,West,261,3.0,8.0,53,0.00,,,0.00,vanprod-2.5,2015-01-27 11:20:00,
2015-01-27 03:25:00,58.3,41.3,30.04,West,260,3.0,6.0,53,0.00,,,0.00,vanprod-2.5,2015-01-27 11:25:00,